Location: Albany
(42.6530°N, 73.7570°W)
Time: 03:21:39
(UTC-04:00)

ISS - Visible Passes

Search period start: 05 July 2022 00:00
Search period end: 15 July 2022 00:00
Orbit: 414 x 420 km, 51.6° (Epoch: 05 July)

Date Brightness Start Highest point End Pass type
(mag) Time Alt. Az. Time Alt. Az. Time Alt. Az.
05 Jul -2.8 02:00:01 47° NNE 02:00:01 47° NNE 02:02:42 10° NE visible
05 Jul -1.3 03:34:04 10° WNW 03:36:39 20° N 03:39:13 10° NE visible
06 Jul -1.5 01:13:13 21° ENE 01:13:13 21° ENE 01:14:30 10° ENE visible
06 Jul -1.5 02:46:06 14° WNW 02:48:13 23° NNW 02:51:00 10° NE visible
06 Jul -0.9 04:23:26 10° NW 04:25:49 18° N 04:28:13 10° NE visible
07 Jul -2.0 01:59:13 27° NW 01:59:49 29° NNW 02:02:50 10° NE visible
07 Jul -0.9 03:35:00 10° NW 03:37:21 17° N 03:39:42 10° NE visible
08 Jul -2.1 01:12:15 34° N 01:12:15 34° N 01:14:40 10° NE visible
08 Jul -1.0 02:46:26 10° NW 02:48:51 18° N 02:51:18 10° NE visible
08 Jul -1.1 04:23:46 10° NW 04:26:28 22° NNE 04:29:12 10° ENE visible
09 Jul -1.6 00:25:09 21° NE 00:25:09 21° NE 00:26:28 10° NE visible
09 Jul -1.1 01:58:00 11° WNW 02:00:22 20° NNW 02:02:58 10° NE visible
09 Jul -0.9 03:35:29 10° NW 03:38:01 19° N 03:40:31 10° ENE visible
09 Jul -1.1 23:37:46 13° ENE 23:37:46 13° ENE 23:38:12 10° ENE visible
10 Jul -1.4 01:10:36 19° NW 01:11:54 24° NNW 01:14:43 10° NE visible
10 Jul -0.8 02:47:07 10° NW 02:49:30 18° N 02:51:53 10° NE visible
10 Jul -1.9 04:23:50 10° NW 04:26:58 35° NNE 04:30:05 10° E visible
10 Jul -1.1 22:49:44 11° ENE 22:49:44 11° ENE 22:49:50 10° ENE visible
11 Jul -1.9 00:22:29 25° NW 00:23:28 30° NNW 00:26:30 10° NE visible
11 Jul -0.8 01:58:38 10° NW 02:00:59 17° N 02:03:19 10° NE visible
11 Jul -1.4 03:35:37 10° NW 03:38:32 26° NNE 03:41:27 10° ENE visible
11 Jul -2.9 21:55:32 10° SSW 21:58:25 27° SE 22:01:19 10° ENE visible
11 Jul -2.5 23:31:51 10° W 23:35:03 42° NNW 23:38:17 10° NE visible
12 Jul -0.8 01:10:01 10° NW 01:12:26 18° N 01:14:52 10° NE visible
12 Jul -1.1 02:47:22 10° NW 02:50:03 22° NNE 02:52:44 10° ENE visible
12 Jul -3.6 04:23:51 10° NW 04:27:13 76° NNE 04:30:35 10° ESE visible
12 Jul -2.2 21:08:06 10° S 21:10:16 16° SE 21:12:27 10° E visible
12 Jul -3.4 22:43:22 10° WSW 22:46:41 65° NNW 22:50:02 10° NE visible
13 Jul -1.0 00:21:19 10° WNW 00:23:54 20° NNW 00:26:32 10° NE visible
13 Jul -0.9 01:59:03 10° NW 02:01:32 19° N 02:04:01 10° NE visible
13 Jul -2.7 03:35:35 10° NW 03:38:53 48° NNE 03:42:08 10° ESE visible
13 Jul -3.9 21:55:02 10° SW 21:58:21 77° SE 22:01:43 10° ENE visible
13 Jul -1.3 23:32:35 10° WNW 23:35:24 24° NNW 23:38:14 10° NE visible
14 Jul -0.7 01:10:38 10° NW 01:12:59 18° N 01:15:21 10° NE visible
14 Jul -2.0 02:47:21 10° NW 02:50:27 33° NNE 02:53:33 10° E visible
14 Jul -3.3 04:24:04 10° WNW 04:27:14 39° SW 04:30:24 10° SSE visible
14 Jul -3.4 21:06:54 10° SSW 21:10:05 44° SE 21:13:17 10° ENE visible
14 Jul -1.8 22:43:52 10° W 22:46:55 31° NNW 22:49:58 10° NE visible
